STARLINK-32284 (61005 NORAD) Tracking and Keplerian Element Data

This shows tracking and keplerian element data for the satellite.

Feedback or suggestion? Click here.




ElementValue
Catalog61005
NameSTARLINK-32284
Epoch Orbit690
Epoch Day286.32626797
Epoch Year2024
RAAN295.6887
Inclination53.1604
Eccentricity0.0001542
Argument of Perigee87.2768
Mean Anonmoly272.8413
Mean Motion15.39619462
Decay Rate1.239E-05
L11 61005U 24158R 24286.32626797 .00001239 00000+0 40952-4 0 9994
L22 61005 53.1604 295.6887 0001542 87.2768 272.8413 15.39619462 6906



Live tracking and technical data element details for STARLINK-32284 (NORAD 61005). STARLINK-32284 can be tracked NOW for your location showing map with azimuth and elevation plus other details from your city location.







IsCatalogInMostPopularTable: catalog: 61005, numindb: 8
Update: records affected: 1



GetName: 61005 STARLINK-32284

Hit Count: updated at: Tue, 03 Dec 2024 02:53:00 GMT